STARLINK-2303, 47981

Orbit data source: Space-Track

STARLINK-2303, 47981 is a payload satellite owned by SpaceX/Seattle (US) in LEO that was launched on Wed, 24 Mar 2021 UTC via an FALCON 9 launch vehicle from the Air Force Eastern Test Range (AFETR). Payload-class satellites include a variety of spacecraft equipped with specific instruments for various scientific and technological missions. These include communications satellites like Starlink; space stations such as the ISS; scientific satellites like the Hubble; Earth observation satellites from companies like Planet Labs, Umbra, and HawkEye 360; GPS; miniature CubeSats for education and research; and military/defense satellites.

Loading next visibility...
Identifier
47981, 2021-024E
Orbit
LEO
Country
Flag of USUS
Related business
Manufacturer
SpaceX/Seattle
Mission
Operational Commercial Communications
Bus & Motor
STARLINK, Unknown motor
Mass
260 kg wet, ~248 kg dry
Launch date (UTC)
2021-03-24 (5 years ago)
Launch vehicle
FALCON 9
Launch site
Air Force Eastern Test Range (AFETR)
Object type
Payload
Rocket body
Debris
Shape & HBR
Box + 1 Pan, 10.1 m
Radar Cross Section
13.562 m², Large (>1 m²)

Expand to show TLE details & history
Last TLE update: 1 day ago

TLE from 1 day ago
0 STARLINK-2303
1 47981U 21024E   25348.44272402  .00007543  00000-0  52444-3 0  9996
2 47981  53.0543 359.3066 0001505  98.9956 261.1204 15.06422283261716
Epoch: 2025-12-14T10:37Z
TLE epoch observation values (Epoch: 2025-12-14T10:37:31.355Z)
Latitude
0.00004°
Longitude
116.5704°
Altitude
548.183 km
Speed
7.589 km/s
True Right ascension
23h 57m 13s
True Declination
0° 00' 00"
Sunlit
Object was in daylight at epoch
Visualization orbit readout
Latitude
Unknown
Longitude
Unknown
Altitude
Unknown
Speed
Unknown
Apparent Right ascension
Unknown
Apparent Declination
Unknown
Sunlit
N/A
Visualization observer readout
Local Sidereal Time
18:10:18
Azimuth
Unknown
Elevation
Unknown
Doppler factor
Unknown
Orbital elements
Apogee altitude
548.456 km
Perigee altitude
546.372 km
Semi-major axis
6,925.551 km
Eccentricity
0.00015
Inclination
53.0543°
RAAN
359.3066°
Arg. of periapsis
98.9956°
True anomaly
261.10336°
Mean anomaly
261.1204°
Eccentric anomaly
261.11188°
Mean motion
3.76584 °/min
Orbital period
95.6 mins
BSTAR
0.00052444
Loading maneuver chart data...
Computing Atmospheric mass density...

Documentation

Showing up to 5 results
|